Date and Time,30m Wind Direction,30m Wind Speed,30m Wind Vert,30m Quality,40m Wind Direction,40m Wind Speed,40m Wind Vert,40m Quality,50m Wind Direction,50m Wind Speed,50m Wind Vert,50m Quality,60m Wind Direction,60m Wind Speed,60m Wind Vert,60m Quality,80m Wind Direction,80m Wind Speed,80m Wind Vert,80m Quality,100m Wind Direction,100m Wind Speed,100m Wind Vert,100m Quality,120m Wind Direction,120m Wind Speed,120m Wind Vert,120m Quality,140m Wind Direction,140m Wind Speed,140m Wind Vert,140m Quality,160m Wind Direction,160m Wind Speed,160m Wind Vert,160m Quality,180m Wind Direction,180m Wind Speed,180m Wind Vert,180m Quality,200m Wind Direction,200m Wind Speed,200m Wind Vert,200m Quality,30m Wind Turbulence,40m Wind Turbulence,50m Wind Turbulence,60m Wind Turbulence,80m Wind Turbulence,100m Wind Turbulence,120m Wind Turbulence,140m Wind Turbulence,160m Wind Turbulence,180m Wind Turbulence,200m Wind Turbulence
8/9/2017 12:00 AM,172.50,4.02,-0.03,98,177.00,3.57,-0.01,97,182.90,4.01,0.01,96,168.50,3.35,0.23,95,180.10,7.13,0.52,85,204.70,2.51,0.58,61,179.00,6.17,0.32,84,188.80,5.91,0.33,93,197.00,4.82,0.16,94,201.30,5.05,0.13,93,220.30,4.68,0.06,93,0.12,0.23,0.24,0.41,0.32,0.85,0.39,0.39,0.46,0.37,0.37
8/9/2017 12:10 AM,182.10,4.06,0.02,98,182.10,4.10,0.01,98,182.00,4.07,-0.05,97,180.50,4.63,-0.17,97,172.50,10.74,-1.69,70,182.10,11.49,-0.92,90,185.70,4.33,-0.51,93,194.70,7.87,-0.56,91,184.00,9.40,-0.87,92,202.00,10.01,-1.40,85,178.70,13.52,-1.93,61,0.10,0.08,0.18,0.30,0.37,0.30,0.63,0.28,0.29,0.54,0.35
8/9/2017 12:20 AM,185.60,4.18,-0.02,98,182.50,4.67,0.01,97,180.90,4.13,-0.01,97,166.20,3.74,-0.04,93,174.10,5.19,-1.06,73,189.90,12.34,-2.12,76,163.30,5.35,-0.66,93,182.00,3.93,-0.54,93,150.60,6.04,-0.47,71,143.40,4.56,-0.53,88,166.50,9.40,-1.46,80,0.09,0.07,0.19,0.41,0.55,0.59,0.62,0.55,0.90,1.13,0.50
8/9/2017 12:30 AM,186.00,4.08,0.04,98,187.90,4.17,0.03,97,170.60,4.64,0.22,94,163.40,2.68,0.22,93,131.70,2.67,1.02,66,106.10,10.82,0.99,75,172.30,3.44,0.99,89,191.00,5.33,0.38,93,175.70,5.64,0.60,89,2.70,1.19,1.57,85,123.70,5.36,1.44,85,0.09,0.08,0.19,1.14,1.13,0.92,0.69,0.54,0.70,1.53,1.62
8/9/2017 12:40 AM,189.50,3.72,0.05,98,186.40,4.38,0.07,98,183.20,4.18,0.03,98,185.80,3.27,-0.11,94,193.10,2.80,-1.29,66,168.80,7.55,-0.72,84,127.70,6.48,-0.98,87,181.30,6.87,0.00,91,176.50,5.73,-0.49,87,124.00,9.98,-0.46,65,108.30,15.36,-1.01,63,0.13,0.09,0.15,0.56,1.41,0.65,0.90,0.35,0.76,0.69,0.56
8/9/2017 12:50 AM,182.20,4.02,0.10,97,180.40,4.49,0.05,97,181.60,4.13,0.01,98,145.90,3.66,-0.10,94,112.20,6.14,-0.35,87,143.30,3.66,-0.16,63,99.20,2.11,0.52,89,168.20,5.32,0.29,94,181.80,3.86,0.13,95,140.80,5.17,-0.05,93,103.90,5.88,0.44,89,0.12,0.10,0.13,0.38,0.74,6.64,1.09,0.30,0.48,0.59,0.84
8/9/2017 1:00 AM,190.40,3.73,-0.05,98,185.10,4.34,0.02,98,186.50,3.32,-0.04,96,170.50,1.09,-0.23,91,188.50,3.74,-0.09,94,185.10,4.32,-0.02,97,197.90,3.81,-0.09,95,191.40,3.54,-0.24,94,210.10,3.65,-0.14,94,223.50,3.41,-0.24,95,229.30,3.68,-0.20,94,0.11,0.10,0.32,2.27,0.64,0.25,0.22,0.31,0.32,0.40,0.30
8/9/2017 1:10 AM,198.30,3.96,0.00,97,191.20,4.54,0.03,96,199.40,4.44,0.06,97,194.50,4.10,0.18,91,185.90,5.38,0.47,89,190.10,4.78,0.23,90,213.60,4.41,0.06,92,203.80,4.66,0.24,89,218.20,3.42,0.32,90,231.80,4.61,-0.01,88,273.80,2.96,0.23,88,0.09,0.07,0.14,0.46,0.96,0.50,0.31,0.46,0.85,0.52,0.50
8/9/2017 1:20 AM,194.80,4.07,0.03,98,192.20,4.44,0.04,96,192.40,4.81,0.06,98,202.20,4.10,-0.07,92,323.50,1.84,-0.15,84,198.40,3.15,-0.13,91,209.30,4.24,0.21,92,227.60,3.58,-0.04,88,339.20,2.04,-0.21,81,117.20,3.30,-0.46,61,30.40,2.60,-0.02,61,0.09,0.08,0.13,0.42,0.84,1.18,0.44,1.06,1.01,0.72,1.37
8/9/2017 1:30 AM,185.00,3.83,0.07,98,187.80,4.19,0.01,98,187.80,4.17,0.01,98,202.20,2.14,-0.23,95,323.90,9.72,-2.06,66,276.20,1.97,-1.43,70,237.50,3.70,-0.27,94,237.30,3.00,-0.26,92,276.10,4.10,-0.98,80,327.00,4.30,-1.42,71,324.30,7.05,-1.23,81,0.09,0.06,0.10,0.98,0.27,0.66,0.67,0.53,0.59,0.52,0.39
8/9/2017 1:40 AM,185.30,4.73,-0.01,97,182.30,4.56,-0.08,97,135.40,1.68,-0.02,88,116.30,0.59,-0.62,62,277.10,9.21,-4.39,21,122.50,12.53,-2.17,39,125.50,4.96,-1.38,51,190.70,5.24,-0.33,66,190.50,1.28,-0.88,87,310.50,10.30,-4.40,26,83.90,10.73,-3.66,18,0.07,0.13,0.85,0.99,0.67,0.49,0.70,0.45,1.25,0.65,1.17
8/9/2017 1:50 AM,197.90,4.27,0.06,98,196.90,4.67,0.08,98,195.50,4.59,0.12,98,202.40,4.42,0.08,91,127.00,5.97,-1.01,56,226.50,4.31,-0.67,75,215.00,4.77,-0.10,93,216.30,4.70,0.00,95,229.30,3.80,-0.19,91,233.20,3.44,-0.24,93,270.40,6.15,-0.85,77,0.08,0.08,0.10,0.38,0.78,0.90,0.46,0.26,0.50,0.59,0.45
8/9/2017 2:00 AM,200.00,4.43,0.06,98,199.00,4.68,0.08,97,198.20,4.83,0.06,98,200.60,4.12,0.17,94,246.30,3.67,-0.02,87,192.30,4.06,0.45,95,215.60,4.27,0.16,95,260.50,4.24,0.27,95,251.90,3.36,0.00,97,255.40,4.20,0.18,95,216.70,4.71,-0.21,92,0.08,0.07,0.08,0.46,1.01,0.43,0.32,0.60,0.64,0.46,0.66
8/9/2017 2:10 AM,198.20,4.31,0.04,97,198.60,4.66,0.02,96,203.20,5.06,0.02,97,156.50,3.17,0.35,91,68.70,11.77,1.25,87,217.30,2.27,0.31,90,203.10,1.42,0.49,87,195.10,3.30,0.64,90,249.00,3.06,0.14,96,307.70,3.35,0.43,92,238.80,1.00,-0.17,87,0.09,0.08,0.18,1.00,1.24,2.02,1.50,1.10,1.09,0.95,2.47
8/9/2017 2:20 AM,197.40,4.38,-0.02,98,196.90,4.53,0.04,97,192.50,4.12,0.07,96,170.60,6.59,1.79,90,134.30,6.54,2.67,87,148.20,2.98,1.11,89,174.30,3.40,1.50,90,189.10,4.82,0.84,94,228.50,3.67,0.36,95,205.90,1.56,0.70,95,82.80,1.33,1.51,91,0.08,0.07,0.24,0.56,2.08,1.39,1.75,0.49,0.73,1.17,6.41
8/9/2017 2:30 AM,193.20,4.35,0.07,98,194.70,4.95,0.06,97,197.00,5.58,0.06,97,200.40,3.77,0.48,95,123.30,6.38,2.56,79,124.90,7.42,2.41,87,114.70,6.93,2.29,88,195.20,4.68,0.97,91,256.90,4.63,0.23,92,215.00,3.23,0.73,95,218.00,3.07,0.74,94,0.07,0.06,0.13,0.70,6.05,0.67,1.17,0.68,0.83,0.86,0.76
8/9/2017 2:40 AM,196.30,4.76,0.03,97,196.90,5.01,0.06,97,205.30,4.61,0.43,96,214.20,4.30,1.83,89,142.60,5.84,3.00,72,146.30,8.15,3.28,80,127.90,1.15,2.93,87,239.20,1.98,2.73,68,130.60,0.80,2.37,89,139.80,2.88,2.37,89,250.70,3.04,2.11,86,0.06,0.09,0.33,0.56,0.59,0.29,1.23,1.23,1.10,1.02,1.08
8/9/2017 2:50 AM,205.90,4.04,0.00,98,202.70,4.50,0.05,97,205.20,4.85,0.04,97,216.80,5.41,-0.01,95,176.40,2.01,0.58,58,62.20,5.15,0.90,57,157.60,1.59,0.69,62,211.30,5.03,0.62,40,238.20,0.84,0.04,52,333.80,6.68,0.04,56,25.50,2.88,0.23,57,0.10,0.08,0.08,0.15,1.65,1.17,1.74,1.06,2.82,0.77,2.00
8/9/2017 3:00 AM,200.40,3.62,0.02,98,206.20,4.12,-0.01,97,197.90,4.38,0.05,97,201.90,4.79,-0.05,97,193.80,5.70,0.10,87,202.10,6.30,1.79,56,213.10,8.41,3.36,47,196.90,6.30,0.62,66,221.10,2.36,0.52,65,304.30,0.77,0.24,77,254.10,6.61,0.60,66,0.09,0.09,0.06,0.10,0.37,0.73,0.57,1.23,0.95,2.14,0.54
8/9/2017 3:10 AM,197.50,3.71,-0.06,97,199.70,4.15,-0.09,96,196.00,4.66,0.00,97,186.30,5.04,0.06,96,200.40,2.26,-0.55,88,196.90,4.90,0.33,82,96.30,5.11,0.21,85,323.40,2.81,0.24,80,159.80,3.56,0.02,88,296.50,2.49,0.50,74,204.00,4.99,-0.51,81,0.13,0.12,0.09,0.27,1.67,1.19,13.77,2.30,0.71,4.00,0.85
8/9/2017 3:20 AM,200.50,4.31,0.00,97,201.10,4.64,0.01,97,180.70,4.62,0.58,93,48.80,4.10,2.10,87,109.80,7.01,2.04,87,51.20,7.09,2.47,78,27.70,6.52,2.14,85,342.90,3.14,2.12,85,64.70,3.50,1.86,85,0.50,10.88,2.69,80,13.20,11.70,2.59,86,0.07,0.09,0.62,0.55,1.62,0.67,0.55,0.79,1.20,0.50,0.59
8/9/2017 3:30 AM,209.60,4.29,0.01,97,207.40,4.51,0.03,97,211.30,4.64,-0.06,95,209.10,2.90,-0.15,92,243.70,7.67,-0.43,73,253.30,4.66,-0.02,80,234.90,5.53,-0.24,90,244.80,5.19,-0.21,89,240.40,3.59,-0.22,88,241.10,2.83,-0.32,92,256.40,5.52,-0.18,92,0.08,0.09,0.22,0.51,0.47,0.65,0.43,0.50,1.20,0.58,0.33
8/9/2017 3:40 AM,213.00,4.09,0.05,97,215.20,4.54,0.03,96,219.60,4.80,0.05,96,227.80,3.86,-0.10,94,229.40,5.06,-0.09,94,233.60,4.98,-0.11,98,234.60,5.06,-0.07,97,241.60,4.76,-0.10,96,243.20,4.59,-0.16,95,263.60,4.56,-0.22,93,296.40,4.61,-0.12,90,0.08,0.08,0.08,0.38,0.29,0.22,0.11,0.09,0.19,0.44,0.40
8/9/2017 3:50 AM,220.60,3.41,0.03,98,221.40,3.88,0.05,95,219.10,4.29,0.02,97,222.10,4.55,0.03,97,231.30,4.56,0.01,98,238.60,4.60,-0.03,97,239.90,4.29,-0.07,97,250.80,4.09,0.02,95,252.60,3.93,-0.02,94,270.60,2.89,0.02,89,298.90,3.70,-0.05,85,0.10,0.09,0.08,0.09,0.07,0.09,0.18,0.19,0.30,0.86,0.74
8/9/2017 4:00 AM,221.90,2.78,-0.09,96,216.40,2.54,-0.01,98,214.00,2.85,0.02,96,216.70,3.31,0.03,96,229.00,3.84,-0.07,97,236.50,4.08,-0.07,98,238.30,3.85,-0.02,97,243.30,4.12,-0.03,97,254.90,2.93,0.01,94,262.80,4.27,0.10,95,267.00,3.53,-0.04,95,0.18,0.18,0.14,0.13,0.18,0.23,0.10,0.19,1.01,0.33,0.47
8/9/2017 4:10 AM,214.20,2.62,0.01,96,231.40,3.08,-0.10,96,217.10,3.01,-0.06,96,215.90,3.63,-0.16,97,225.70,3.88,-0.12,98,236.80,4.09,-0.12,98,221.20,5.14,-0.24,97,221.10,5.30,-0.38,95,218.40,5.39,-0.43,94,220.20,3.41,-0.43,92,198.30,6.81,-1.55,73,0.12,0.13,0.23,0.25,0.32,0.18,0.34,0.58,0.45,1.06,2.67
8/9/2017 4:20 AM,219.00,2.33,0.02,97,231.60,2.15,-0.01,94,244.80,2.79,0.02,96,234.20,2.91,-0.02,97,242.80,3.48,-0.08,98,248.10,3.41,-0.10,97,262.70,3.25,-0.11,95,237.70,3.48,-0.32,93,287.40,6.42,-0.63,65,348.20,8.27,-0.52,30,306.70,11.23,-0.96,35,0.16,0.24,0.16,0.22,0.09,0.15,0.10,0.66,1.00,0.47,0.74
8/9/2017 4:30 AM,247.30,1.91,0.00,95,221.50,2.55,-0.08,93,252.30,2.74,0.04,96,239.70,3.11,-0.09,96,244.60,3.47,-0.13,94,246.60,4.01,-0.08,94,237.00,3.78,-0.22,92,258.90,3.37,-0.17,84,217.90,7.35,-0.37,45,229.40,17.44,-1.21,41,218.50,16.14,-1.00,44,0.22,0.15,0.21,0.24,0.34,0.23,0.47,0.60,0.62,0.47,0.40
8/9/2017 4:40 AM,267.70,2.00,0.07,95,253.20,3.10,-0.02,96,267.30,3.06,0.04,97,259.90,3.14,-0.06,96,255.30,3.19,-0.14,96,255.60,3.22,-0.18,93,215.30,9.75,-0.35,69,192.40,14.60,0.37,63,176.60,17.05,2.52,44,210.90,10.76,0.59,43,231.20,16.00,1.43,57,0.20,0.13,0.11,0.20,0.28,0.36,0.56,0.47,0.55,0.62,0.62
8/9/2017 4:50 AM,277.80,2.27,0.06,96,254.10,2.90,-0.05,98,269.50,2.87,-0.02,97,284.20,2.97,0.00,96,283.10,3.37,0.01,97,346.60,2.43,-1.22,63,236.10,8.21,-0.80,56,150.70,8.38,-0.79,36,271.60,1.38,-4.02,39,26.50,0.93,-0.91,62,61.80,1.68,-0.83,51,0.19,0.16,0.22,0.10,0.39,4.54,0.56,0.49,0.95,2.93,1.22
8/9/2017 5:00 AM,296.20,1.90,0.00,95,262.90,2.13,-0.28,97,277.90,2.66,-0.08,95,289.60,3.08,0.00,95,278.10,2.85,-0.14,97,191.10,14.48,-4.26,72,239.10,12.85,-4.90,65,268.40,11.71,-5.92,60,268.20,10.80,-5.04,56,202.90,12.07,-4.92,62,202.70,13.97,-5.40,63,0.24,0.35,0.13,0.09,1.02,0.44,1.22,1.06,0.55,0.59,0.67
8/9/2017 5:10 AM,296.80,2.18,0.05,94,274.80,2.36,-0.04,95,289.40,3.21,-0.02,97,294.70,3.66,-0.03,98,297.70,3.03,-0.50,70,137.40,15.23,-5.43,10,240.10,4.09,-1.28,32,352.30,2.87,-4.74,15,85.00,5.55,-6.13,14,257.40,3.45,-6.84,3,187.70,5.59,-5.71,15,0.19,0.14,0.08,0.06,1.46,0.24,0.73,0.82,2.85,0.88,0.65
8/9/2017 5:20 AM,283.80,2.42,0.05,98,289.30,3.37,0.04,98,294.90,3.58,0.02,99,315.40,3.10,-0.15,97,45.60,4.32,-3.26,82,218.90,2.98,-2.64,84,211.40,5.30,-2.39,73,269.00,2.58,-5.23,45,263.60,1.87,-7.76,35,293.60,4.11,-7.23,43,220.30,6.44,-5.49,21,0.26,0.20,0.16,0.74,0.82,1.26,0.55,0.97,1.67,0.52,0.69
8/9/2017 5:30 AM,297.50,2.52,0.06,98,283.30,2.93,0.03,97,287.60,3.48,0.01,96,290.60,3.93,-0.02,98,294.50,3.81,-0.26,95,302.30,4.56,-0.27,96,166.70,5.47,-2.20,75,95.90,7.57,-3.46,69,131.60,15.97,-4.67,55,96.40,11.25,-5.91,52,66.90,6.91,-7.27,30,0.15,0.18,0.26,0.30,1.54,1.53,0.44,0.47,0.46,0.27,0.58
8/9/2017 5:40 AM,300.10,2.96,0.06,98,294.10,3.59,0.03,99,293.10,3.81,0.00,99,292.30,4.26,-0.01,99,295.70,5.22,-0.08,99,297.80,5.44,-0.21,97,45.90,5.09,-2.44,52,47.80,5.86,-7.14,41,199.00,1.30,-8.05,25,123.80,21.39,-5.23,21,105.10,6.33,-6.94,34,0.11,0.09,0.08,0.06,0.09,0.47,0.72,0.55,0.65,0.23,3.41
8/9/2017 5:50 AM,293.50,3.34,0.07,99,294.60,3.69,0.08,99,292.90,4.21,0.02,99,293.30,4.78,0.00,99,294.90,5.54,-0.06,99,295.60,6.59,-0.25,97,61.20,7.72,-2.99,63,352.20,4.88,-6.00,45,86.20,6.86,-5.43,50,117.50,8.69,-6.58,57,131.10,11.70,-6.26,53,0.12,0.09,0.08,0.07,0.06,0.33,1.30,0.71,1.27,0.67,1.00
8/9/2017 6:00 AM,292.20,3.46,0.03,99,292.60,3.60,0.03,99,293.00,4.47,0.03,99,292.50,4.66,0.03,99,294.60,5.79,-0.05,100,303.60,6.62,-0.05,98,281.20,11.64,-2.90,62,121.20,3.21,-7.62,26,127.20,4.82,-7.27,46,105.30,12.54,-7.08,42,156.70,3.70,-7.11,40,0.09,0.09,0.07,0.06,0.06,0.30,0.78,0.66,0.73,0.40,0.79
8/9/2017 6:10 AM,294.60,3.70,0.09,99,291.70,4.23,0.03,100,292.30,4.61,0.03,99,291.00,5.33,-0.04,99,297.80,6.39,-0.06,99,356.20,4.90,-0.39,94,96.30,26.37,-1.04,14,130.20,29.73,-1.98,13,123.80,31.94,-2.29,15,121.70,31.11,-2.17,17,132.90,32.27,-2.25,19,0.08,0.08,0.09,0.07,0.07,1.01,0.23,0.21,0.14,0.15,0.15
8/9/2017 6:20 AM,298.50,3.85,0.06,99,297.20,4.36,0.00,99,295.60,4.66,-0.03,99,294.70,5.07,-0.02,100,296.00,6.44,-0.08,100,290.10,9.26,-2.28,91,177.80,2.01,-3.78,62,295.30,5.23,-4.70,66,250.80,5.25,-5.73,74,1.20,2.59,-4.77,61,324.20,6.02,-4.77,74,0.07,0.07,0.06,0.07,0.04,0.54,2.27,0.89,0.63,2.48,1.37
8/9/2017 6:30 AM,294.10,3.60,0.04,99,293.40,4.16,0.01,99,294.20,5.07,-0.01,99,293.90,5.49,-0.07,99,298.20,7.05,-0.11,100,244.20,5.35,-2.06,65,195.70,17.91,-3.77,46,199.80,6.14,-4.59,55,179.60,12.12,-4.41,52,165.60,11.43,-4.13,42,182.80,7.65,-3.84,50,0.07,0.08,0.06,0.05,0.05,0.91,0.62,1.14,0.72,0.41,0.83
8/9/2017 6:40 AM,300.00,3.82,0.02,99,295.70,4.15,-0.03,98,296.60,4.65,-0.02,99,296.90,5.26,-0.04,100,298.50,6.71,-0.10,100,172.70,9.78,-2.94,70,163.70,15.73,-3.64,57,164.40,14.49,-3.35,66,173.40,13.95,-3.50,59,149.00,9.08,-3.71,48,179.20,13.71,-3.28,52,0.06,0.07,0.05,0.05,0.04,2.35,0.37,0.61,0.47,0.72,0.56
8/9/2017 6:50 AM,294.10,3.90,-0.02,99,293.40,4.21,-0.02,98,295.60,4.59,-0.05,99,295.50,5.40,-0.06,99,299.30,6.64,-0.12,100,218.50,13.35,-3.69,87,179.20,11.89,-3.94,63,243.80,18.55,-4.95,64,193.50,10.23,-4.63,77,216.10,8.46,-4.55,82,251.30,5.57,-4.97,60,0.07,0.06,0.06,0.05,0.04,1.66,0.85,0.57,0.76,3.41,3.77
8/9/2017 7:00 AM,293.20,3.54,0.04,99,293.70,3.81,0.00,99,295.30,4.58,-0.07,99,295.40,5.22,-0.04,99,294.90,6.57,-0.10,100,302.60,5.54,-3.46,66,183.00,7.60,-5.64,36,3.10,5.67,-5.75,46,116.30,5.08,-6.21,55,356.30,4.03,-6.79,61,157.90,3.36,-5.94,52,0.07,0.07,0.06,0.05,0.05,0.62,0.82,0.86,0.51,1.19,1.40
8/9/2017 7:10 AM,296.90,3.62,0.02,99,295.10,4.22,0.01,98,294.00,4.53,-0.04,99,294.00,5.04,-0.03,99,296.70,6.20,-0.09,100,292.90,8.73,-0.30,96,257.30,6.39,-0.67,57,139.30,6.66,-1.09,44,164.10,17.94,-2.15,51,184.40,14.79,-2.69,59,214.90,17.01,-2.68,43,0.08,0.07,0.07,0.06,0.05,0.30,2.43,1.10,0.77,0.63,0.55
8/9/2017 7:20 AM,293.90,3.90,-0.01,99,295.10,4.33,0.03,99,292.60,4.65,-0.01,99,291.90,4.84,-0.04,99,294.70,6.47,-0.08,100,294.30,9.02,-0.26,96,206.30,11.87,-1.73,50,227.80,1.86,-1.48,37,159.80,4.67,-3.27,34,207.10,3.43,-4.04,50,175.70,8.60,-3.94,52,0.07,0.06,0.06,0.05,0.05,0.33,0.95,1.49,1.28,0.86,1.03
8/9/2017 7:30 AM,294.30,3.44,0.06,99,297.30,3.82,0.03,99,291.30,4.23,0.01,98,293.20,5.16,-0.03,99,293.80,7.07,-0.05,99,185.90,2.70,0.76,53,280.90,4.43,1.15,64,215.50,7.35,0.69,56,243.80,2.41,0.01,73,247.10,8.17,-1.13,66,275.80,7.83,1.38,67,0.09,0.07,0.07,0.05,0.05,1.33,1.70,1.15,1.18,0.67,0.79
8/9/2017 7:40 AM,293.10,3.54,0.03,98,294.70,4.10,-0.02,99,291.50,4.54,-0.03,99,293.30,5.26,-0.03,100,295.80,7.28,-0.05,98,25.60,7.17,1.57,52,235.60,2.05,1.38,52,22.80,5.57,1.95,59,3.60,7.41,1.27,52,34.60,9.95,1.77,41,25.40,11.57,1.31,55,0.08,0.08,0.05,0.05,0.10,0.63,0.91,0.74,1.28,0.67,0.42
8/9/2017 7:50 AM,295.80,3.44,0.03,100,291.60,3.89,0.01,98,291.20,4.36,-0.03,98,293.70,5.31,-0.07,99,294.90,6.82,-0.06,99,37.90,10.43,-1.54,76,78.00,9.42,-1.66,78,40.90,5.30,-1.20,47,82.00,18.83,-2.46,65,71.10,6.37,-2.09,56,60.30,16.96,-2.12,71,0.08,0.07,0.07,0.05,0.06,0.79,0.61,2.57,0.39,1.09,0.78
8/9/2017 8:00 AM,296.70,3.53,0.01,99,291.40,3.97,-0.02,99,293.60,4.77,-0.03,100,293.80,5.47,-0.04,100,296.10,7.33,-0.06,99,232.60,3.68,-3.64,55,149.80,15.66,-2.93,48,204.10,7.04,-3.91,46,118.30,10.54,-3.96,51,190.00,8.90,-4.95,48,123.00,13.39,-4.56,37,0.08,0.06,0.05,0.04,0.06,3.55,0.57,1.12,0.47,0.69,0.68
8/9/2017 8:10 AM,296.40,3.73,0.05,99,296.30,4.40,0.02,100,297.50,4.95,-0.01,100,297.50,5.58,-0.05,100,288.30,6.74,-0.68,98,187.70,3.92,-5.51,75,339.50,3.47,-4.53,51,211.70,3.36,-4.47,67,202.30,4.91,-5.41,81,245.00,3.18,-5.37,74,253.00,3.08,-4.80,66,0.08,0.05,0.04,0.04,0.50,13.43,1.47,0.88,0.74,1.68,4.13
8/9/2017 8:20 AM,297.30,4.18,0.01,99,298.30,4.59,-0.01,99,295.40,5.54,-0.03,100,297.20,6.30,-0.07,100,295.00,7.83,0.11,95,4.00,6.35,-2.10,47,17.30,11.56,-0.62,57,337.60,7.57,-1.01,65,66.50,5.83,-0.55,53,60.90,13.11,-1.47,45,7.30,7.33,-0.28,49,0.07,0.07,0.05,0.04,0.26,0.44,0.57,0.69,0.45,0.37,0.67
8/9/2017 8:30 AM,298.80,4.45,0.01,100,298.60,5.43,0.00,100,298.80,5.96,-0.01,99,302.50,6.60,-0.06,100,302.50,7.89,-0.05,100,316.90,4.98,-0.11,91,354.10,0.95,-0.18,84,148.40,12.27,-1.76,53,148.30,8.36,-2.00,66,111.10,7.13,-1.94,67,129.40,3.68,-2.61,71,0.07,0.06,0.06,0.05,0.10,1.16,2.47,0.63,0.75,1.29,1.89
8/9/2017 8:40 AM,307.10,4.02,0.07,99,309.60,4.49,0.03,99,308.50,4.82,0.08,99,305.40,5.44,0.08,99,305.20,6.65,0.01,100,306.20,7.63,-0.04,99,292.70,4.17,0.21,94,151.20,3.08,0.55,77,174.80,15.78,0.42,86,153.10,6.71,0.72,75,74.40,5.09,1.34,65,0.08,0.08,0.07,0.08,0.07,0.08,0.54,2.18,0.62,0.95,1.61
8/9/2017 8:50 AM,305.40,4.58,0.07,99,308.00,5.26,0.01,99,307.40,5.81,-0.07,99,304.40,6.08,-0.10,100,308.50,7.47,-0.05,99,309.40,7.79,0.02,97,60.90,6.41,0.63,78,93.80,10.31,0.79,64,67.50,9.03,0.41,72,109.80,9.18,0.93,53,125.80,8.70,0.04,71,0.08,0.08,0.07,0.06,0.07,0.27,0.48,0.46,0.83,0.46,2.02
8/9/2017 9:00 AM,306.10,4.69,0.06,99,305.90,5.22,0.03,99,308.00,5.92,0.01,100,308.20,7.01,0.02,99,312.10,8.05,0.01,100,342.10,4.79,0.97,93,78.20,10.41,1.63,43,70.00,13.79,1.57,32,62.10,22.85,0.62,28,77.10,20.29,0.87,64,68.90,10.11,1.86,52,0.08,0.08,0.06,0.06,0.05,0.80,0.38,0.38,0.35,0.25,0.61
8/9/2017 9:10 AM,305.00,5.07,0.03,100,306.70,5.48,-0.01,99,308.20,6.12,0.00,99,310.30,7.13,-0.03,100,315.40,8.21,0.04,98,64.90,7.24,1.92,56,51.70,14.95,2.22,44,56.90,9.65,2.67,63,72.70,18.66,1.35,30,78.70,11.91,1.89,43,61.30,15.52,1.74,42,0.07,0.06,0.06,0.05,0.12,0.58,0.51,0.51,0.24,0.27,0.28
8/9/2017 9:20 AM,313.60,5.10,0.08,99,311.80,5.69,0.02,99,314.70,6.57,0.00,99,316.40,7.17,-0.03,99,321.60,8.67,-0.03,99,77.20,8.59,0.87,35,36.30,8.99,0.81,47,52.50,15.73,0.69,47,38.80,8.10,0.59,48,58.50,24.52,-0.02,37,27.10,15.22,-0.20,37,0.06,0.06,0.05,0.05,0.09,0.35,0.68,0.46,0.57,0.44,0.34
8/9/2017 9:30 AM,312.50,4.38,0.07,99,310.70,4.85,0.07,99,314.80,5.75,0.05,99,317.40,6.46,0.02,99,332.90,7.89,-0.02,97,6.50,12.64,-2.96,61,17.30,17.52,-2.82,46,3.50,18.68,-2.59,42,344.90,23.89,-3.62,42,19.00,19.34,-3.67,46,13.50,16.03,-3.07,30,0.09,0.07,0.07,0.06,0.20,0.49,0.88,0.39,0.43,0.54,1.08
8/9/2017 9:40 AM,319.70,3.64,-0.03,97,318.60,4.09,-0.02,98,321.70,4.53,-0.03,97,323.50,5.21,0.03,97,342.10,5.48,0.26,95,102.50,18.94,0.07,27,98.80,12.58,2.35,28,118.70,15.88,2.52,24,89.20,27.85,0.71,24,87.10,29.82,0.89,30,86.30,18.64,1.29,21,0.11,0.07,0.10,0.16,0.31,0.23,0.27,0.22,0.13,0.17,0.22
8/9/2017 9:50 AM,325.00,3.11,-0.05,95,333.50,3.76,-0.05,95,339.60,4.28,-0.08,96,334.60,5.08,-0.04,96,339.90,6.62,-0.12,97,100.50,21.83,-1.14,63,84.40,28.32,-1.38,52,72.60,19.62,-0.07,73,94.20,18.67,-0.42,56,115.60,21.81,-0.40,56,76.20,19.80,-0.24,49,0.09,0.08,0.06,0.06,0.20,0.40,0.25,0.40,0.43,0.30,0.38
8/9/2017 10:00 AM,318.80,3.11,-0.02,97,326.80,3.70,-0.06,96,328.20,4.47,-0.03,96,344.60,5.63,-0.14,97,352.30,6.05,-0.15,97,31.00,8.41,0.07,92,77.90,13.25,-0.91,86,88.40,12.07,0.55,79,72.80,11.49,1.25,64,95.90,11.13,1.19,53,104.30,25.80,0.70,61,0.09,0.09,0.10,0.11,0.57,0.65,1.11,0.52,0.59,0.78,0.31
8/9/2017 10:10 AM,316.30,3.23,0.00,98,316.30,3.75,0.03,96,327.50,4.41,0.01,96,337.30,5.33,0.00,96,357.00,4.92,0.20,97,16.20,3.75,0.77,92,75.50,11.47,2.21,65,173.00,10.02,3.79,58,154.50,4.45,6.55,39,197.80,7.06,3.29,55,38.90,4.58,4.04,47,0.08,0.14,0.08,0.07,0.47,1.39,0.57,0.85,0.65,2.13,1.97
8/9/2017 10:20 AM,321.50,2.80,0.00,96,342.40,3.33,-0.03,96,342.00,4.04,-0.06,96,344.30,4.57,-0.02,97,352.60,5.80,0.01,98,359.40,5.02,-0.10,98,59.30,7.68,0.28,78,177.60,12.00,-0.97,30,193.30,5.71,-0.55,28,170.10,9.47,1.65,24,241.70,18.17,0.09,40,0.12,0.10,0.08,0.05,0.05,0.26,0.49,0.74,2.04,0.67,0.53
8/9/2017 10:30 AM,339.30,2.57,-0.03,95,338.70,3.10,0.00,96,329.10,3.67,0.01,95,353.10,4.28,-0.01,97,348.70,4.41,0.01,97,2.60,5.76,-0.13,96,33.30,2.94,0.46,91,16.20,4.69,-0.02,86,95.30,5.66,0.67,66,183.90,16.79,1.17,22,302.00,31.94,0.32,17,0.14,0.10,0.16,0.20,0.25,0.25,0.91,0.67,1.01,0.44,0.48
8/9/2017 10:40 AM,338.50,2.65,-0.09,97,340.80,3.33,-0.07,96,346.20,3.84,-0.12,96,0.30,4.58,-0.15,99,1.70,5.40,-0.07,100,7.50,6.20,-0.12,99,21.50,7.82,-0.26,91,307.80,2.82,-0.75,54,76.10,13.59,-0.70,35,66.30,5.88,-0.28,42,71.00,8.01,0.14,32,0.12,0.08,0.10,0.15,0.08,0.06,0.34,1.39,0.48,0.45,0.73
8/9/2017 10:50 AM,316.80,2.49,-0.04,95,340.10,3.03,-0.08,96,352.40,3.28,-0.09,96,357.60,3.97,-0.04,97,7.00,4.73,0.01,98,7.80,5.82,0.01,96,26.80,6.42,0.19,94,308.60,4.40,-0.41,44,300.00,9.69,-2.18,19,197.90,16.91,-0.48,19,294.90,10.98,-0.29,19,0.29,0.26,0.17,0.09,0.07,0.09,0.17,0.86,0.52,1.18,2.11
8/9/2017 11:00 AM,337.60,2.32,-0.06,96,350.20,2.69,-0.08,96,351.60,3.33,-0.08,98,2.70,3.79,-0.04,97,10.10,4.70,-0.03,98,21.20,4.91,-0.03,95,60.80,14.95,-0.60,75,35.20,7.78,-0.66,34,207.50,11.05,-1.27,37,70.80,13.67,-0.49,44,305.60,7.28,-1.02,25,0.14,0.13,0.10,0.09,0.11,0.45,0.39,0.62,2.58,0.50,1.56
8/9/2017 11:10 AM,342.50,2.20,-0.06,96,327.20,2.47,-0.07,96,351.50,2.76,-0.05,97,3.30,3.41,-0.04,98,9.40,4.07,-0.04,98,17.30,4.86,0.01,97,17.70,4.70,0.06,95,54.90,6.25,-0.06,69,333.20,20.67,-0.10,33,46.10,14.16,0.12,34,64.20,19.25,1.50,36,0.18,0.27,0.20,0.15,0.09,0.17,0.54,0.51,0.41,0.80,0.71
8/9/2017 11:20 AM,317.80,1.95,0.02,97,325.90,1.94,0.01,96,319.40,2.61,-0.18,96,2.80,2.75,-0.17,97,357.70,3.56,-0.14,99,9.10,4.10,-0.11,98,20.10,4.46,0.00,97,27.40,5.42,-0.04,96,22.80,7.70,-0.18,92,0.90,11.67,-0.89,45,139.00,8.12,0.22,33,0.28,0.30,0.38,0.43,0.08,0.24,0.20,0.27,0.40,2.77,10.18
8/9/2017 11:30 AM,339.30,1.73,0.03,97,339.60,2.20,-0.05,96,348.40,2.25,-0.07,97,355.60,2.72,-0.02,97,345.90,4.20,-0.21,97,19.60,3.63,0.06,96,22.40,4.01,0.04,97,23.60,5.56,-0.11,97,37.50,6.66,0.08,92,210.80,11.98,0.36,30,269.50,5.46,1.66,17,0.30,0.24,0.18,0.17,0.28,0.21,0.31,0.18,0.36,1.66,0.86
8/9/2017 11:40 AM,343.70,1.65,-0.04,98,349.90,1.87,-0.05,97,356.60,2.45,-0.04,97,7.00,2.61,-0.05,97,17.30,3.05,-0.08,96,27.90,4.03,-0.05,96,35.10,5.26,-0.04,96,37.90,7.12,0.07,94,51.00,9.90,-0.29,39,29.50,14.48,2.25,26,62.70,31.21,0.64,23,0.23,0.19,0.16,0.13,0.11,0.07,0.06,0.22,0.54,0.29,0.30
8/9/2017 11:50 AM,353.50,2.01,0.04,97,0.90,1.96,0.03,96,358.10,2.22,-0.01,97,7.60,2.46,-0.03,98,36.60,3.34,-0.05,96,35.90,4.23,-0.11,97,36.80,6.91,-0.05,98,67.00,11.29,2.91,24,49.00,7.10,2.85,29,131.90,6.77,1.34,24,242.50,12.67,2.58,22,0.20,0.19,0.28,0.26,0.22,0.21,0.16,0.86,0.96,0.59,0.45
8/9/2017 12:00 PM,358.60,2.33,0.03,98,3.60,2.48,0.00,97,13.90,2.86,-0.07,97,18.00,3.10,-0.08,98,23.50,4.31,-0.12,96,36.70,5.26,0.00,98,40.60,6.33,-0.07,95,333.90,7.28,0.96,41,302.60,6.69,2.38,29,45.10,18.93,0.90,12,70.80,9.64,1.16,21,0.21,0.18,0.13,0.09,0.13,0.10,0.22,0.57,3.06,0.29,0.59
8/9/2017 12:10 PM,8.00,2.70,-0.01,97,14.40,2.70,0.01,97,8.50,2.89,0.05,97,16.30,3.05,0.02,98,15.50,3.67,-0.04,97,25.10,4.40,-0.03,98,36.80,5.54,0.07,98,46.90,6.46,0.23,96,55.30,11.04,0.10,55,5.10,8.50,0.49,40,87.30,13.93,0.97,29,0.17,0.16,0.16,0.19,0.19,0.11,0.11,0.28,0.65,1.45,0.46
8/9/2017 12:20 PM,0.50,2.52,0.14,97,7.70,2.63,0.07,98,11.10,3.00,0.09,97,13.00,2.59,0.08,97,20.00,3.37,0.03,98,35.30,3.90,-0.02,97,39.50,5.10,0.06,98,41.50,7.27,0.01,96,332.00,12.49,-1.77,42,243.60,10.18,-4.00,26,256.30,1.75,-3.30,25,0.26,0.16,0.23,0.39,0.15,0.17,0.07,0.15,1.05,1.95,0.86
8/9/2017 12:30 PM,356.90,2.58,0.04,98,4.40,2.65,-0.02,98,1.70,2.98,-0.03,97,13.10,3.29,-0.05,98,17.70,3.04,0.02,98,26.70,2.82,0.02,97,43.70,4.57,0.09,98,46.80,5.46,0.17,97,64.70,4.51,0.72,94,230.30,4.91,2.29,57,64.40,11.69,2.25,57,0.18,0.18,0.15,0.20,0.25,0.26,0.15,0.24,0.81,0.84,0.55
8/9/2017 12:40 PM,36.40,1.97,-0.20,98,22.50,2.15,-0.14,97,24.20,2.39,-0.11,98,18.00,2.23,-0.15,98,28.30,3.01,-0.07,97,26.00,3.21,-0.10,98,49.20,3.90,-0.04,97,53.30,5.17,-0.04,98,51.00,6.60,-0.11,94,95.80,9.26,0.41,47,180.30,13.99,0.51,18,0.44,0.28,0.47,0.40,0.30,0.36,0.15,0.13,0.27,0.43,0.65